Flag for U.S.A. Weather past 2 weeks in Cleveland, Ohio, U.S.A.

55 °F

Mostly cloudy.

Feels Like: 51 °F
Forecast: 47 / 60 °F
Wind: 15 mph from South

Location: Cleveland-Hopkins International Airport

Current Time: Nov 26, 2015 at 11:21:33 AM

Latest Report: Nov 26, 2015 at 10:51 AM

Visibility: 10 mi

Pressure: 30.53 "Hg

Humidity: 47%

Dew point: 35 °F

Location of ClevelandLocation

Historic Weather in Cleveland — Graph


Cleveland temperature yesterday

Maximum temperature yesterday: 58 °F (at 1:51 PM)
Minimum temperature yesterday: 34 °F (at 4:51 AM)
Average temperature yesterday: 46 °F

Past Weeks' High & Low Weather Summary

High70 °F (Nov 18, 4:51 PM)92% (Nov 21, 11:51 PM)30.55 "Hg (Nov 21, 11:51 PM)
Low22 °F (Nov 23, 1:51 AM)24% (Nov 20, 12:51 PM)29.47 "Hg (Nov 12, 8:51 AM)
Average46 °F56%30.14 "Hg
* Reported Nov 11 9:51 AM — Nov 26 9:51 AM, Cleveland, Weather by CustomWeather, © 2015

Note: Actual official high and low records may vary slightly from our data, if they occured in-between our weather recording intervals... More about our weather records


Cleveland weather history for previous 24 hours

Time TempWeatherWind HumidityBarometerVisibility
9:51 AM
Thu, Nov 26
53 °FPartly sunny.17 mph47%30.55 "Hg10 mi
8:51 AM51 °FPartly sunny.16 mph48%30.54 "Hg10 mi
7:51 AM50 °FPartly sunny.15 mph48%30.53 "Hg10 mi
6:51 AM50 °FPassing clouds.17 mph46%30.52 "Hg10 mi
5:51 AM49 °FPassing clouds.14 mph46%30.51 "Hg10 mi
4:51 AM49 °FPassing clouds.16 mph44%30.50 "Hg10 mi
3:51 AM50 °FPassing clouds.14 mph41%30.48 "Hg10 mi
2:51 AM50 °FPassing clouds.14 mph41%30.48 "Hg10 mi
1:51 AM50 °FPassing clouds.12 mph39%30.48 "Hg10 mi
12:51 AM50 °FPassing clouds.N/A39%30.47 "Hg10 mi
11:51 PM
Wed, Nov 25
51 °FPassing clouds.13 mph36%30.46 "Hg10 mi
10:51 PM51 °FPassing clouds.14 mph36%30.45 "Hg10 mi
9:51 PM51 °FPassing clouds.12 mph36%30.46 "Hg10 mi
8:51 PM48 °FPassing clouds.10 mph43%30.45 "Hg10 mi
7:51 PM47 °FPassing clouds.9 mph46%30.45 "Hg10 mi
6:51 PM48 °FPassing clouds.7 mph46%30.46 "Hg10 mi
5:51 PM51 °FPassing clouds.6 mph41%30.44 "Hg10 mi
4:51 PM53 °FScattered clouds.7 mph37%30.42 "Hg10 mi
3:51 PM58 °FScattered clouds.18 mph32%30.41 "Hg10 mi
2:51 PM58 °FScattered clouds.13 mph35%30.44 "Hg10 mi
1:51 PM58 °FPassing clouds.13 mph38%30.47 "Hg10 mi
12:51 PM57 °FPassing clouds.13 mph39%30.49 "Hg10 mi
11:51 AM55 °FPassing clouds.12 mph42%30.51 "Hg10 mi
Weather by CustomWeather, © 2015

See weather overviewHow to use our weather pages